sat.trackr.live / text

‹ back to catalog

SHIYAN-5 (SY-5)

NORAD 39455 · 2013-068A

PAYLOAD ACTIVE UNKNOWN

§ Identity

Operator
Country
PRC
Launch date
2013-11-25
Launch site
JSC
Launch vehicle
Mass (kg)
RCS (m²)
1.33

External: N2YO · Heavens-Above · Gunter

§ Orbital elements

Epoch: 2026-09-10T04:24:24.043104Z

Period
99.74 min
Inclination
98.0587°
Eccentricity
0.0015320
Mean motion
14.43712725 rev/d
Perigee alt
735.3 km
Apogee alt
757.2 km
Semi-major
7,124.4 km
B*
9.2140e-5
RAAN
119.8994°
Arg perigee
47.9911°
Mean anomaly
312.2582°
Rev number
67,389

§ Raw data

SHIYAN-5 (SY-5)1 39455U 13068A   26253.18361161  .00000273  00000+0  92140-4 0  99902 39455  98.0587 119.8994 0015320  47.9911 312.2582 14.43712725673890

JSON: /api/v1/satellites/39455 · /tle

For live sub-satellite position, see the globe view (requires WebGL).

§ Visibility from observer

Set your observer location to see the next 7 days of passes ≥ 10°. The values pass through the URL so the page stays shareable.

No JS? Fill the form by hand. The geolocation button needs JavaScript.